Montgomery, NY

11:47 PM EDT on May 29, 2017 (GMT -0400)
Orange County

Weather History for KMGJ - October, 2012

Change the Weather History Date:

Sunday, October 21, 2012

  Actual Average (KSWF) Record (KSWF)
Temperature  
Mean Temperature 53 °F -  
Max Temperature 64 °F 57 °F 76 °F (1984)
Min Temperature 42 °F 38 °F 16 °F (1974)
Degree Days  
Heating Degree Days 12    
Growing Degree Days 3 (Base 50)    
Moisture  
Dew Point 39 °F    
Average Humidity 63    
Maximum Humidity 89    
Minimum Humidity 38    
Precipitation  
Precipitation 0.00 in - - ()
Sea Level Pressure  
Sea Level Pressure 29.93 in    
Wind  
Wind Speed 7 mph (WSW)    
Max Wind Speed 15 mph    
Max Gust Speed 24 mph    
Visibility 10 miles    
Events      
Averages and records for this station are not official NWS values.
T = Trace of Precipitation, MM = Missing Value Source: NWS Daily Summary

Daily Weather History Graph

Daily Weather History Graph

Search for Another Location

Airport or City:

Trip Planner

Search our weather history database for the weather conditions in past years. The results will help you decide how hot, cold, wet, or windy it might be!

Date:

Astronomy

Oct. 21, 2012 Rise Set
Actual Time 7:16 AM EDT 6:06 PM EDT
Civil Twilight 6:48 AM EDT 6:34 PM EDT
Nautical Twilight 6:15 AM EDT 7:06 PM EDT
Astronomical Twilight 5:43 AM EDT 7:38 PM EDT
Moon 1:36 PM EDT (10/21) 11:56 PM EDT (10/21)
Length of Visible Light 11h 46m
Length of Day
10h 49m
Waxing Crescent, 45% of the Moon is Illuminated
Oct 21
Waxing Crescent
Oct 21
First Quarter
Oct 29
Full
Nov 6
Last Quarter
Nov 13
New

Hourly Weather History & Observations

Time (EDT) Temp. Windchill Dew Point Humidity Pressure Visibility Wind Dir Wind Speed Gust Speed Precip Events Conditions
12:54 AM 48.9 °F - 37.9 °F 66% 29.82 in 10.0 mi WSW 5.8 mph - N/A   Clear
1:54 AM 48.9 °F - 39.0 °F 69% 29.84 in 10.0 mi WSW 8.1 mph - N/A   Clear
2:54 AM 46.9 °F - 39.0 °F 74% 29.86 in 10.0 mi WSW 9.2 mph - N/A   Clear
3:54 AM 43.0 °F 40.3 °F 37.9 °F 82% 29.87 in 10.0 mi SW 4.6 mph - N/A   Clear
4:54 AM 45.0 °F 43.5 °F 39.0 °F 80% 29.88 in 10.0 mi WSW 3.5 mph - N/A   Clear
5:54 AM 43.0 °F 38.8 °F 39.0 °F 86% 29.89 in 10.0 mi WSW 6.9 mph - N/A   Clear
6:54 AM 42.1 °F 39.2 °F 37.9 °F 85% 29.92 in 10.0 mi SSW 4.6 mph - N/A   Clear
7:54 AM 42.1 °F 40.2 °F 39.0 °F 89% 29.94 in 10.0 mi SSE 3.5 mph - N/A   Clear
8:54 AM 51.1 °F - 41.0 °F 68% 29.95 in 10.0 mi WNW 6.9 mph - N/A   Clear
9:54 AM 55.0 °F - 42.1 °F 62% 29.95 in 10.0 mi WNW 9.2 mph - N/A   Clear
10:54 AM 57.0 °F - 42.1 °F 57% 29.96 in 10.0 mi WNW 9.2 mph 16.1 mph N/A   Clear
11:54 AM 60.1 °F - 41.0 °F 49% 29.95 in 10.0 mi West 6.9 mph - N/A   Scattered Clouds
12:54 PM 61.0 °F - 39.0 °F 44% 29.95 in 10.0 mi NW 13.8 mph 18.4 mph N/A   Scattered Clouds
1:54 PM 62.1 °F - 39.0 °F 43% 29.94 in 10.0 mi NW 11.5 mph - N/A   Scattered Clouds
2:54 PM 64.0 °F - 39.0 °F 40% 29.93 in 10.0 mi West 15.0 mph 24.2 mph N/A   Mostly Cloudy
3:54 PM 62.1 °F - 37.0 °F 39% 29.94 in 10.0 mi NW 9.2 mph - N/A   Overcast
4:54 PM 62.1 °F - 36.0 °F 38% 29.93 in 10.0 mi WNW 10.4 mph 17.3 mph N/A   Clear
5:54 PM 59.0 °F - 37.0 °F 44% 29.95 in 10.0 mi West 3.5 mph - N/A   Mostly Cloudy
6:54 PM 55.0 °F - 39.0 °F 55% 29.96 in 10.0 mi Calm Calm - N/A   Mostly Cloudy
7:54 PM 54.0 °F - 37.9 °F 55% 29.97 in 10.0 mi West 4.6 mph - N/A   Clear
8:54 PM 46.0 °F 44.8 °F 39.9 °F 79% 29.99 in 10.0 mi SSW 3.5 mph - N/A   Clear
9:54 PM 43.0 °F 39.5 °F 37.9 °F 82% 30.01 in 10.0 mi SSW 5.8 mph - N/A   Clear
10:54 PM 45.0 °F 41.8 °F 37.9 °F 76% 30.01 in 10.0 mi WSW 5.8 mph - N/A   Clear
11:54 PM 53.1 °F - 37.0 °F 55% 30.01 in 10.0 mi West 9.2 mph - N/A   Clear